www.pogodaiklimat.ru

Погода и климат >> Архив погоды >> Россия >> Рязанская область >> Елатьма


АРХИВ ПОГОДЫ в Елатьме

Время (UTC), дата Ветер
(напр.,м/с)
 
Видим.   Явления Облачность Т
(С)
Тd
(С)
f
(%)
Тe
(С)
Тes
(С)
Комфортность P
(гПа)
Po
(гПа)
Тmin
(С)
Tmax
(С)
R
(мм)
R24
(мм)
S
(см)
06 15.04 СВ 3 10 км 10/5 600 м
[Sc Ci fib]
+5.9 -6.0 42 +3 +6 1025.6 1008.8 +1.9
09 15.04 В 3 10 км 3/0
[Ci fib]
+10.0 -9.7 24 +9 +18 1026.1 1009.5
12 15.04 СВ 2 10 км 3/0
[Ci fib]
+12.5 -10.2 19 +12 +19 1025.0 1008.5
15 15.04 СВ 2 10 км 3/0
[Ci fib]
+11.2 -10.7 20 +11 +11 1024.5 1008.0 +12.8
18 15.04 СВ 2 10 км ясно +7.1 -11.6 25 +6 +6 1025.4 1008.6
21 15.04 штиль 0 10 км ясно +3.7 -10.9 33 +4 +4 1025.9 1008.9
00 16.04 штиль 0 10 км ясно -2.6 -5.4 81 -4 -4 1026.0 1008.6
03 16.04 штиль 0 10 км ясно -2.5 -5.1 82 -4 -3 1025.4 1008.0 -3.5
06 16.04 СВ 1 10 км ясно +8.6 -5.5 36 +9 +16 1024.9 1008.2
09 16.04 С 4 10 км ясно +11.7 -4.2 33 +10 +18 1023.7 1007.2
12 16.04 СВ 4 10 км ясно +12.8 -3.1 33 +11 +17 1022.9 1006.5
15 16.04 СВ 4 10 км ясно +10.4 -3.3 38 +8 +9 1023.8 1007.2 +13.2
18 16.04 В 3 10 км 3/0
[Ac trans]
+5.2 -3.2 55 +2 +2 1027.1 1010.2
21 16.04 В 3 10 км 10/10 600 м
[Sc]
+4.7 -4.5 51 +2 +2 1029.1 1012.1
00 17.04 СВ 3 10 км 3/3 600 м
[Sc]
+2.9 -4.8 57 -1 -1 1029.8 1012.7
03 17.04 СВ 1 10 км 1/1 600 м
[Sc]
0.0 -5.2 68 -2 -1 1031.8 1014.5 -0.3
06 17.04 В 4 10 км 3/1 600 м
[Cu hum Ci fib]
+3.9 -7.7 42 0 +4 1033.6 1016.4
09 17.04 В 3 10 км 4/0
[Ci fib]
+6.6 -12.1 25 +5 +14 опасность
простуды
1033.5 1016.6
12 17.04 В 2 10 км 4/0
[Ci fib]
+8.5 -15.6 16 +8 +15 1032.5 1015.7
15 17.04 В 1 10 км 10/0
[Ci fib]
+7.9 -16.4 16 +8 +9 1031.6 1014.8 +8.7
18 17.04 штиль 0 10 км 10/0
[Ci fib]
+0.7 -11.2 41 +1 +1 1032.4 1015.1
21 17.04 штиль 0 10 км 10/0
[Ci fib]
-2.0 -10.1 54 -3 -3 1032.6 1015.1
00 18.04 штиль 0 10 км 10/0
[Ci fib]
-3.1 -10.7 56 -4 -4 1031.9 1014.4
03 18.04 штиль 0 10 км 10/4 600 м
[Sc Ci fib]
-2.3 -8.1 64 -3 -3 1031.2 1013.7 -4.3
06 18.04 ЮЗ 1 10 км 10/0
[Ac trans Cc]
+4.2 -12.0 30 +4 +9 1029.9 1012.8
09 18.04 Ю 1 10 км 10/0
[Cc]
+8.9 -13.7 19 +9 +20 опасность
простуды
1028.8 1012.1
12 18.04 В 1 10 км 10/0
[Cc]
+10.2 -12.5 19 +11 +18 1028.1 1011.4
15 18.04 В 2 10 км 10/0
[Ci fib]
+9.3 -11.9 21 +9 +9 1027.5 1010.8 +10.8
18 18.04 штиль 0 10 км 10/3 600 м
[Sc Ci fib]
+0.8 -8.5 50 0 0 1028.8 1011.6
21 18.04 ЮВ 1 10 км 10/0
[Ci fib]
+2.2 -11.9 34 +2 +2 1029.5 1012.3
00 19.04 штиль 0 10 км 10/0
[Ci fib]
-2.8 -8.9 63 -3 -3 1030.5 1013.0
03 19.04 штиль 0 10 км 5/0
[Ci fib]
-1.0 -8.6 56 -2 -1 1030.6 1013.2 -4.2
06 19.04 штиль 0 10 км ясно +7.5 -10.5 27 +8 +17 1030.8 1014.0
09 19.04 С 2 10 км ясно +10.8 -14.5 15 +10 +22 опасность
простуды
1030.1 1013.4
12 19.04 СВ 1 10 км ясно +12.1 -13.5 15 +13 +22 1028.6 1012.1
15 19.04 штиль 0 10 км ясно +12.4 -12.2 17 +13 +14 1027.2 1010.7 +12.4
18 19.04 штиль 0 10 км 1/1 600 м
[Sc]
+3.2 -6.2 50 +3 +3 1028.0 1010.9
21 19.04 штиль 0 10 км ясно +0.1 -6.7 60 -1 -1 1027.7 1010.5
00 20.04 штиль 0 10 км ясно -2.5 -5.3 81 -4 -4 1027.2 1009.8
03 20.04 штиль 0 10 км ясно -0.9 -5.1 73 -2 -1 1026.5 1009.2 -2.7
06 20.04 штиль 0 10 км 8/0
[Ci fib]
+10.6 -6.9 29 +11 +18 1025.8 1009.2
09 20.04 З 1 10 км 8/0
[Ci fib]
+13.6 -7.4 23 +14 +26 опасность
простуды
1024.9 1008.5
12 20.04 штиль 0 10 км 6/0
[Ci fib]
+15.0 -8.4 19 +15 +25 1024.2 1007.9
15 20.04 штиль 0 10 км ясно +14.8 -9.1 18 +15 +16 1023.8 1007.5 +15.2
18 20.04 штиль 0 10 км ясно +5.1 -6.9 42 +5 +5 1025.4 1008.5
21 20.04 штиль 0 10 км ясно +3.2 -4.0 59 +3 +3 1026.0 1009.0
00 21.04 штиль 0 10 км ясно +1.4 -4.7 64 +1 +1 1026.3 1009.2
03 21.04 штиль 0 10 км 4/0
[Cs]
+0.5 -3.2 76 -0 0 1027.3 1010.1 -1.7
06 21.04 штиль 0 10 км 4/0
[Ci fib]
+11.9 -3.4 34 +12 +21 1027.4 1010.9
09 21.04 СЗ 1 10 км 8/1 600 м
[Cu hum Ci fib]
+16.0 -7.4 19 +17 +28 1027.0 1010.7
12 21.04 С 3 10 км 6/1 600 м
[Cu hum Ci fib]
+17.1 -7.6 18 +17 +23 1026.0 1009.8
15 21.04 С 1 10 км 3/0
[Ci fib]
+16.4 -7.5 19 +17 +19 1025.5 1009.2 +17.4
18 21.04 штиль 0 10 км ясно +6.4 -3.6 49 +6 +6 1026.7 1009.9
21 21.04 штиль 0 10 км ясно +2.8 -3.8 62 +2 +2 1027.6 1010.5
00 22.04 штиль 0 10 км ясно 0.0 -3.3 78 -1 -1 1028.3 1011.0
03 22.04 штиль 0 10 км 10/6 600 м
[Sc Ci fib]
+1.3 -2.1 78 0 +1 1028.7 1011.6 -1.2

 

Местоположение метеостанции Елатьма (Рязанская область, Россия): широта 54.95 долгота 41.77 высота над уровнем моря 136 м.

В архиве по умолчанию представлена погода в Елатьме за последнюю неделю. Архивные данные за месяц целиком и за предыдущие месяцы, начиная с января 2011 года, Вы можете получить, выбрав интересующий диапазон дат из раскрывающегося списка и нажав кнопку "Ввод!".


*Определитесь, кто Вы:
робот инопланетянин человек

Внимание! Время в таблицах - всемирное. Для получения местного времени необходимо прибавить поправку, которая равна 3 ч.

Смотрите также архив погоды в соседних городах и на ближайших метеорологических станциях:

Погода в Выксе (Нижегородская область, Россия) (48 км)
Погода в Сасово (Рязанская область, Россия) (68 км)
Погода в Муроме (Владимирская область, Россия) (74 км)
Погода в Туме (Рязанская область, Россия) (80 км)
Погода в Шилово (Рязанская область, Россия) (92 км)
Погода в Темникове (Мордовия, Россия) (100 км)
Погода в Гусь-Хрустальный (Владимирская область, Россия) (101 км)
Погода в Черустях (Московская область, Россия) (129 км)
Погода в Арзамасе (Нижегородская область, Россия) (136 км)
Погода в Торбеево (Мордовия, Россия) (136 км)

Пояснения к столбцам:

Ветер - указаны скорость ветра в м/с - средняя за 10 мин, порывы в срок и между сроками (в фигурных скобках) и направление, откуда дует ветер: С - северный, СВ - северо-восточный, В - восточный, ЮВ - юго-восточный, Ю - южный, ЮЗ - юго-западный, З - западный, СЗ - северо-западный.
Видимость - горизонтальная дальность видимости в метрах или километрах. При видимости от 1 до 10 км при отсутствии осадков обычно наблюдается дымка, при ухудшении видимости до 1 км и менее - туман. В сухую погоду видимость может ухудшаться дымом, пылью или мглою.
Явления - указаны атмосферные явления, наблюдавшиеся в срок или в последний час перед сроком; фигурными скобками обозначены явления, наблюдавшиеся между сроками (за 1-3 часа до срока); квадратными скобками обозначены град или гололедные отложения с указанием их диаметра в мм.
Облачность - указаны через наклонную черту общая и нижняя облачность в баллах и высота нижней границы облаков в метрах; квадратными скобками обозначены формы облаков: Ci - перистые, Cs - перисто-слоистые, Cc - перисто-кучевые, Ac - высококучевые, As - высокослоистые, Sc - слоисто-кучевые, Ns - слоисто-дождевые, Cu - кучевые, Cb - кучево-дождевые. Подробнее классификацию облаков см. в Атласе облаков (PDF).
T - Температура воздуха - температура, измеренная на высоте 2 м над землей.
Td - Температура точки росы - температура, при понижении до которой содержащийся в воздухе водяной пар достигнет насыщения.
f - Относительная влажность воздуха - влажноcть воздуха, измеренная на высоте 2 м над землей.
Te - Эффективная температура - температура, которую ощущает одетый по сезону человек в тени. Характеристика душности погоды. При расчете учитывается влияние влажности воздуха и скорости ветра на теплоощущения человека.
Tes - Эффективная температура на солнце - температура, которую ощущает человек, с поправкой на солнечный нагрев. Характеристика знойности погоды. Зависит от высоты солнца над горизонтом, облачности и скорости ветра. Ночью, в пасмурную погоду, а также при ветре 12 м/с и более поправка равна нулю.
P - Атмосферное давление - приведенное к уровню моря атмосферное давление.
Po - Атмосферное давление - измеренное на уровне метеостанции атмосферное давление.
Tmin - Минимальная температура - минимум температуры воздуха на высоте 2 м над землей.
Tmax - Максимальная температура - максимум температуры воздуха на высоте 2 м над землей.
R - Количество осадков - Количество выпавших осадков за период времени, мм. При наведении курсора мыши на число - период времени, за который выпало указанное количество осадков.
R24 - Количество осадков - Количество выпавших осадков за 24 часа, мм.
S - Снежный покров - Высота снежного покрова, см. При наведении курсора мыши на число - состояние снежного покрова и степень покрытия местности в баллах.